World > North America > United States > Florida   City of Port St. Lucie, FL

Hourly Port St. Lucie, FL Regional Weather

Feedback E-mail the Weather

Latest News

Port St. Lucie, FL Weather Maps

°F °C°F °C
Port Saint Lucie Weather Map
UTC Time: 5/27/2022, 05:18
Your Time:

Port St. Lucie, FL Regional Weather

Expires:202205270600;;634981
ASUS42 KTBW 270517
RWRFL 
FLORIDA REGIONAL WEATHER ROUNDUP
NATIONAL WEATHER SERVICE TAMPA BAY RUSKIN FL
100 AM EDT FRI MAY 27 2022

NOTE: "FAIR" INDICATES FEW OR NO CLOUDS BELOW 12,000 FEET WITH NO
SIGNIFICANT WEATHER AND/OR OBSTRUCTIONS TO VISIBILITY.


FLZ041-047-054-059-064-141-147-270600-
EAST CENTRAL FLORIDA
  
CITY           SKY/WX    TMP DP  RH WIND       PRES   REMARKS
DAYTONA BEACH  MOCLDY    77  71  82 SE3       30.04F                  
DELAND         MOCLDY    78  70  77 S10       30.04F                  
JFK SPACE CTR  PTCLDY    76  73  87 S7        30.03F                  
CAPE CANAVERAL PTCLDY    78  73  86 S10       30.03F                  
PATRICK AFB    PTCLDY    77  71  82 S12       30.04S                  
MELBOURNE      PTCLDY    78  71  79 S8        30.06S                  
VERO BEACH     PTCLDY    75  72  90 S6        30.06F                  
FT PIERCE      PTCLDY    75  70  84 CALM      30.06F                  
STUART         PTCLDY    77  68  73 CALM      30.07F                  

STATION/POSITION SKY/WX   TEMP    WIND        PRES    WAVE   SWELL
                          AIR SEA DIR/SP/G            HT/PER HT/PER
                          (F)     (DEG/KT/KT) (MB)    (FT/S) (FT/S)
28.5N   80.2W              79 80  140/ 14/ 17 1017.0F   3/ 5   2/10
28.9N   78.5W              78 80  140/ 14/ 16 1019.1F   3/11   2/11
TRIDENT PIER               78 85  150/  8/ 10 1016.9
28.4N   80.5W                 78                N/A     3/ 4
27.6N   80.2W                 76                N/A     3/11   2/11

$$

SKY/WX - Weather  TMP - Temperature  DP - Dew Point  RH - Humidity
WIND - Wind Direction/Speed PRES - Barometric Pressure VSB - Visibility
WCI - Wind Chill Index E13G22 Wind - East Wind 13 mph/Gusts of 22 mph

Trending Headlines

Port St. Lucie Radar Loop



Port St. Lucie Quick Facts


National Two Day Weather Forecast


E-mail the Port St. Lucie Weather Forecast

Voice your opinion or tell us about page issues...